User: anonymous   Login
Location: Unspecified
(0.0000°N, 0.0000°E)
Time: 08:25:51
(UTC+00:00)
Language:

N. Korean satellite - Orbit

View from above orbital plane
View from above orbital plane
View from above satellite
View from above satellite

Ground track
Ground track

The orbit data is extracted from the following two-line orbital elements,

1 39026U 12072A   15184.80225664  .00003107  00000-0  14198-3 0  9991
2 39026 097.2820 215.7923 0046322 174.7523 185.4207 15.20331597141239
Epoch (UTC): 03 July 2015 19:15:14
Eccentricity: 0.0046322
inclination: 97.2820°
perigee height: 473 km
apogee height: 537 km
right ascension of ascending node: 215.7923°
argument of perigee: 174.7523°
revolutions per day: 15.20331597
mean anomaly at epoch: 185.4207°
orbit number at epoch: 14123

The dashed part of the orbit path shows where the satellite is in the earth's shadow,  

DLR